KG1ZR Weather Reports


time (UTC)temp
F
wind
direction
speed
knots
gust
knots
rain 1hr
in
rain 24hr
in
rain mn
in
humidity
%
barometer
mb
20260510084542 49 205 1.7 3.5 0.00 0.21 0.01 58 1010.6
20260510083543 49 178 0.9 4.3 0.00 0.21 0.01 58 1010.5
20260510082542 49 221 0.9 3.5 0.00 0.21 0.01 58 1010.5
20260510081540 49 146 0.9 3.5 0.00 0.21 0.01 58 1010.3
20260510080540 49 209 0.9 4.3 0.00 0.21 0.01 58 1010.3
20260510080029 49 153 1.7 5.2 0.00 0.21 0.01 58 1010.2
20260510074534 49 161 1.7 6.1 0.00 0.21 0.01 58 1010.2
20260510073534 49 94 1.7 3.5 0.00 0.21 0.01 58 1010.5
20260510072533 49 205 1.7 5.2 0.00 0.21 0.01 58 1010.7
20260510072012 49 218 1.7 5.2 0.00 0.21 0.01 58 1010.7
20260510070532 48 218 1.7 5.2 0.00 0.21 0.01 58 1010.8
20260510065532 48 215 2.6 7.0 0.00 0.21 0.01 58 1010.9
20260510064532 48 206 2.6 7.0 0.00 0.21 0.01 58 1010.9
20260510063530 48 170 2.6 7.0 0.00 0.21 0.01 59 1011.1
20260510062529 48 181 3.5 7.0 0.00 0.21 0.01 59 1011.1
20260510062019 48 171 3.5 7.8 0.00 0.21 0.01 59 1011.1
20260510060528 47 178 3.5 7.0 0.00 0.21 0.01 59 1011.1
20260510055530 47 225 2.6 7.0 0.00 0.21 0.01 59 1011.1
20260510054528 47 178 3.5 7.0 0.00 0.21 0.01 60 1011.1
20260510053529 47 203 3.5 7.0 0.00 0.21 0.01 60 1011.2
20260510052530 46 218 1.7 6.1 0.00 0.21 0.01 60 1011.1
20260510051529 46 205 1.7 6.1 0.01 0.21 0.01 61 1011.2
20260510051020 45 175 0.9 6.1 0.01 0.21 0.01 61 1011.2
20260510045529 44 115 0.9 2.6 0.01 0.21 0.01 61 1011.2
20260510044528 44 75 0.0 1.7 0.01 0.21 0.01 62 1011.3
20260510043529 44 75 0.0 1.7 0.01 0.21 0.01 62 1011.3
20260510042529 44 75 0.0 1.7 0.01 0.21 0.01 62 1011.6
20260510041529 44 75 0.0 2.6 0.00 0.20 0.00 62 1011.5
20260510040529 44 75 0.9 2.6 0.00 0.20 0.00 62 1011.5
20260510035529 44 145 0.0 2.6 0.00 0.20 0.20 63 1011.6
20260510034529 44 137 0.0 1.7 0.00 0.20 0.20 63 1011.7
20260510034003 43 78 0.0 0.0 0.00 0.20 0.20 63 1011.9
20260510032529 43 78 0.0 0.0 0.00 0.20 0.20 63 1012.0
20260510031530 43 78 0.0 0.0 0.00 0.20 0.20 63 1012.2
20260510030528 43 78 0.0 0.0 0.00 0.20 0.20 63 1012.2
20260510025529 43 78 0.0 0.9 0.00 0.20 0.20 63 1012.1
20260510024529 43 78 0.0 2.6 0.00 0.20 0.20 64 1012.1
20260510023528 43 82 0.0 2.6 0.00 0.20 0.20 64 1012.1
20260510023013 43 55 0.0 2.6 0.00 0.20 0.20 64 1012.2
20260510021529 43 55 0.0 1.7 0.00 0.20 0.20 64 1012.4
20260510020529 43 55 0.0 3.5 0.00 0.20 0.20 64 1012.5
20260510015528 43 68 0.9 3.5 0.00 0.20 0.20 64 1012.4
20260510014529 43 53 1.7 4.3 0.01 0.20 0.20 65 1012.4
20260510014006 43 73 0.9 3.5 0.01 0.20 0.20 65 1012.5
20260510012528 43 78 1.7 7.0 0.03 0.20 0.20 65 1012.6
20260510011528 43 77 1.7 7.8 0.05 0.20 0.20 65 1012.6
20260510010529 43 79 2.6 7.8 0.07 0.20 0.20 65 1012.4
20260510005529 43 59 0.9 8.7 0.08 0.20 0.20 66 1012.6
20260510004528 43 80 2.6 8.7 0.08 0.19 0.19 66 1012.6
20260510003529 43 90 5.2 11.3 0.08 0.19 0.19 66 1012.5
20260510002528 43 110 4.3 10.4 0.07 0.17 0.16 66 1012.4
20260510001528 43 88 3.5 7.8 0.05 0.15 0.15 66 1012.4
20260510001010 43 121 3.5 8.7 0.03 0.13 0.13 67 1012.5
20260509235529 43 107 2.6 5.2 0.02 0.12 0.12 67 1012.4
20260509235445 43 101 2.6 4.3 0.01 0.11 0.11 67 1012.6
20260509233529 43 82 1.7 4.3 0.01 0.11 0.11 68 1012.7
20260509232528 43 69 1.7 4.3 0.00 0.10 0.10 68 1012.8
20260509231529 43 101 0.9 3.5 0.00 0.10 0.10 68 1012.9
20260509230529 43 135 1.7 6.1 0.00 0.10 0.10 68 1013.0
20260509225528 43 134 1.7 4.3 0.01 0.10 0.10 68 1013.1
20260509225006 43 107 1.7 5.2 0.01 0.10 0.10 69 1013.3
20260509223529 43 187 0.9 3.5 0.02 0.10 0.10 69 1013.3
20260509222528 43 108 2.6 7.0 0.03 0.10 0.10 69 1013.1
20260509222005 44 92 2.6 7.0 0.04 0.10 0.10 70 1013.0
20260509220529 44 82 1.7 5.2 0.05 0.10 0.10 70 1013.0
20260509215529 44 86 2.6 6.1 0.05 0.09 0.09 71 1013.0
20260509214529 44 87 2.6 6.1 0.06 0.09 0.09 71 1013.0
20260509213530 44 80 2.6 6.1 0.05 0.08 0.08 72 1012.8
20260509212528 44 103 3.5 7.0 0.05 0.07 0.07 73 1012.9
20260509211529 44 105 2.6 5.2 0.04 0.06 0.06 72 1013.1
20260509210529 44 132 2.6 6.1 0.03 0.05 0.05 73 1013.3
20260509205529 45 146 1.7 3.5 0.03 0.04 0.04 73 1013.4
20260509204528 45 133 1.7 5.2 0.02 0.03 0.03 74 1013.6
20260509204007 45 193 1.7 6.1 0.02 0.03 0.03 75 1013.6
20260509202528 45 196 2.6 6.1 0.02 0.02 0.02 76 1013.6
20260509201529 45 131 2.6 5.2 0.02 0.02 0.02 76 1013.8
20260509200528 45 138 2.6 6.1 0.02 0.02 0.02 76 1013.8
20260509200012 46 204 2.6 8.7 0.01 0.01 0.01 77 1014.0
20260509194528 46 94 3.5 8.7 0.01 0.01 0.01 78 1013.9
20260509193526 47 116 2.6 8.7 0.01 0.01 0.01 78 1013.9
20260509192526 47 187 2.6 7.0 0.00 0.00 0.00 77 1013.9
20260509191524 47 186 3.5 7.8 0.00 0.00 0.00 77 1013.9
20260509190524 48 148 4.3 13.0 0.00 0.00 0.00 74 1013.9
20260509185524 49 180 5.2 13.0 0.00 0.00 0.00 69 1013.9
20260509184523 50 194 4.3 10.4 0.00 0.00 0.00 63 1013.8
20260509183522 51 173 4.3 12.2 0.00 0.00 0.00 58 1013.4
20260509182523 52 182 4.3 12.2 0.00 0.00 0.00 54 1013.3
20260509181521 53 173 5.2 14.8 0.00 0.00 0.00 51 1013.3
20260509180520 53 215 6.1 14.8 0.00 0.00 0.00 48 1013.1
20260509175521 54 252 4.3 8.7 0.00 0.00 0.00 48 1012.8
20260509174519 55 207 6.1 14.8 0.00 0.00 0.00 43 1012.9
20260509173518 56 183 6.1 13.0 0.00 0.00 0.00 42 1012.8
20260509173438 56 142 4.3 9.6 0.00 0.00 0.00 42 1012.7
20260509171512 56 216 3.5 12.2 0.00 0.00 0.00 42 1012.6
20260509170511 56 211 5.2 12.2 0.00 0.00 0.00 43 1012.7
20260509165944 56 200 6.1 14.8 0.00 0.00 0.00 41 1012.5
20260509164957 56 171 6.1 14.8 0.00 0.00 0.00 42 1012.6
20260509163508 57 201 5.2 12.2 0.00 0.00 0.00 42 1012.7
20260509162509 58 224 5.2 13.0 0.00 0.00 0.00 40 1012.7
20260509161507 58 68 5.2 14.8 0.00 0.00 0.00 41 1012.6
20260509160506 59 213 5.2 13.9 0.00 0.00 0.00 39 1012.7
20260509155506 58 207 5.2 12.2 0.00 0.00 0.00 40 1012.7
20260509154506 59 228 4.3 10.4 0.00 0.00 0.00 42 1012.7
20260509153506 59 100 3.5 7.8 0.00 0.00 0.00 41 1012.8
20260509152507 58 113 4.3 7.8 0.00 0.00 0.00 42 1012.9
20260509151506 58 117 4.3 12.2 0.00 0.00 0.00 42 1012.9
20260509150506 58 181 4.3 12.2 0.00 0.00 0.00 40 1013.0
20260509145948 57 103 3.5 9.6 0.00 0.00 0.00 41 1012.9
20260509144505 57 182 4.3 12.2 0.00 0.00 0.00 41 1013.1
20260509143940 57 257 4.3 10.4 0.00 0.00 0.00 43 1012.9
20260509142504 57 174 3.5 8.7 0.00 0.00 0.00 45 1013.0
20260509141505 56 241 3.5 8.7 0.00 0.00 0.00 43 1013.1
20260509140505 55 189 3.5 8.7 0.00 0.00 0.00 50 1013.1
20260509135508 55 148 4.3 10.4 0.00 0.00 0.00 47 1013.3
20260509134507 55 177 3.5 8.7 0.00 0.00 0.00 46 1013.4
20260509133505 54 115 3.5 8.7 0.00 0.00 0.00 51 1013.3
20260509132505 53 183 3.5 8.7 0.00 0.00 0.00 52 1013.4
20260509131504 52 153 5.2 11.3 0.00 0.00 0.00 53 1013.4
20260509130504 51 173 5.2 11.3 0.00 0.00 0.00 52 1013.4
20260509125944 51 121 4.3 9.6 0.00 0.00 0.00 52 1013.6
20260509124500 51 126 2.6 7.0 0.00 0.00 0.00 57 1013.6
20260509123459 49 274 2.6 4.3 0.00 0.00 0.00 63 1013.6
20260509122458 48 220 1.7 4.3 0.00 0.00 0.00 67 1013.8
20260509121458 47 234 0.9 2.6 0.00 0.00 0.00 73 1013.6
20260509120932 45 290 0.9 2.6 0.00 0.00 0.00 76 1013.6
20260509115456 44 287 0.0 2.6 0.00 0.00 0.00 79 1013.8
20260509114456 41 250 0.0 0.0 0.00 0.00 0.00 76 1013.8
20260509113454 39 250 0.0 0.0 0.00 0.00 0.00 73 1013.6
20260509112937 37 250 0.0 0.0 0.00 0.00 0.00 75 1013.6
20260509111454 37 250 0.0 0.0 0.00 0.00 0.00 74 1013.5
20260509110457 37 250 0.0 0.0 0.00 0.00 0.00 73 1013.4
20260509105448 35 250 0.0 0.0 0.00 0.00 0.00 72 1013.3
20260509104451 33 250 0.0 0.0 0.00 0.00 0.00 73 1013.3
20260509103449 32 250 0.0 0.0 0.00 0.00 0.00 74 1013.3
20260509102936 31 250 0.0 0.0 0.00 0.00 0.00 75 1013.2
20260509101925 29 250 0.0 0.0 0.00 0.00 0.00 76 1013.0
20260509100448 29 250 0.0 0.0 0.00 0.00 0.00 76 1012.9
20260509100415 29 250 0.0 0.0 0.00 0.00 0.00 76 1012.6
20260509094448 29 250 0.0 0.0 0.00 0.00 0.00 77 1012.5
20260509093447 29 250 0.0 0.0 0.00 0.00 0.00 76 1012.3
20260509092446 29 250 0.0 0.0 0.00 0.00 0.00 77 1012.2
20260509091447 29 250 0.0 0.0 0.00 0.00 0.00 77 1012.2
20260509090526 29 250 0.0 0.0 0.00 0.00 0.00 77 1012.2
20260509085523 30 250 0.0 0.0 0.00 0.00 0.00 77 1012.2